Tracking 25722 objects as of 29-May-2022
HD Live streaming from Space Station
objects crossing your sky now

DELTA 2 R/B(1)

Track DELTA 2 R/B(1) now!
10-day predictions


NORAD ID: 22097
Int'l Code: 1992-057B
Perigee: 1,775.4 km
Apogee: 2,645.7 km
Inclination: 25.2 °
Period: 131.9 minutes
Semi major axis: 8581 km
RCS: 10.6891 m2 (large)
Launch date: August 31, 1992
Source: United States (US)
Launch site: AIR FORCE EASTERN TEST RANGE (AFETR)

Note: This is a ROCKET BODY
aabbcc
Your satellite tracking list
Your tracking list is empty




NASA's NSSDC Master Catalog

Two Line Element Set (TLE):
1 22097U 92057B   22148.79819334  .00000072  00000-0  11137-3 0  9999
2 22097  25.2031 331.8328 0507107 271.2575 105.1373 10.92080813187695
Source of the keplerian elements: AFSPC